QPF
0.01 0.01 0.01 0.00 0.00 0.00 0.00 0.00 0.00 0.00 0.00 0.00 0.00 0.00 0.00 0.00 0.00 0.00 0.00 0.00 0.00 0.01 0.02 0.03 0.03 0.04 0.05 0.04 0.04 0.04 0.06 0.05 0.03 0.01 0.01 0.01 0.01 0.02 0.02 0.01 0.01 0.01 0.00 0.00
0.01 0.01 0.01 0.01 0.00 0.00 0.00 0.00 0.00 0.00 0.00 0.00 0.00 0.00 0.00 0.00 0.00 0.00 0.00 0.00 0.00 0.00 0.01 0.03 0.03 0.04 0.03 0.04 0.04 0.04 0.05 0.05 0.04 0.02 0.02 0.01 0.00 0.01 0.01 0.01 0.01 0.01 0.00 0.00
0.01 0.01 0.01 0.01 0.00 0.00 0.00 0.00 0.00 0.00 0.00 0.00 0.00 0.00 0.00 0.00 0.00 0.00 0.00 0.00 0.00 0.00 0.01 0.02 0.02 0.03 0.05 0.05 0.05 0.05 0.05 0.05 0.05 0.04 0.03 0.02 0.01 0.01 0.02 0.01 0.01 0.00 0.00 0.00
0.02 0.01 0.01 0.01 0.00 0.00 0.00 0.00 0.00 0.00 0.00 0.00 0.00 0.00 0.00 0.00 0.00 0.00 0.00 0.01 0.01 0.01 0.01 0.01 0.02 0.03 0.05 0.06 0.05 0.05 0.05 0.05 0.04 0.04 0.03 0.03 0.02 0.01 0.01 0.01 0.01 0.01 0.00 0.00
0.02 0.02 0.01 0.00 0.00 0.00 0.00 0.00 0.00 0.00 0.00 0.00 0.00 0.00 0.00 0.00 0.00 0.00 0.01 0.01 0.02 0.01 0.01 0.02 0.02 0.02 0.03 0.03 0.03 0.02 0.02 0.03 0.03 0.04 0.04 0.04 0.03 0.02 0.01 0.01 0.01 0.00 0.00 0.00
0.02 0.02 0.01 0.00 0.00 0.00 0.00 0.00 0.00 0.00 0.00 0.00 0.00 0.00 0.00 0.00 0.01 0.01 0.01 0.01 0.02 0.01 0.01 0.01 0.02 0.03 0.03 0.04 0.05 0.03 0.03 0.03 0.03 0.04 0.04 0.04 0.04 0.03 0.02 0.01 0.01 0.00 0.00 0.00
0.01 0.01 0.01 0.00 0.00 0.00 0.00 0.00 0.00 0.00 0.00 0.00 0.00 0.00 0.00 0.01 0.01 0.01 0.01 0.01 0.01 0.01 0.01 0.01 0.01 0.02 0.03 0.04 0.05 0.05 0.04 0.04 0.03 0.04 0.04 0.03 0.03 0.03 0.02 0.01 0.01 0.00 0.00 0.00
0.01 0.01 0.01 0.00 0.00 0.01 0.01 0.00 0.00 0.00 0.00 0.00 0.00 0.00 0.00 0.00 0.01 0.01 0.01 0.01 0.01 0.01 0.01 0.01 0.01 0.01 0.01 0.02 0.03 0.04 0.04 0.04 0.04 0.04 0.04 0.04 0.04 0.04 0.03 0.03 0.02 0.01 0.01 0.01
0.01 0.01 0.01 0.00 0.01 0.01 0.00 0.00 0.00 0.00 0.00 0.00 0.00 0.00 0.00 0.00 0.00 0.00 0.00 0.01 0.01 0.01 0.01 0.01 0.00 0.01 0.01 0.02 0.02 0.02 0.03 0.03 0.03 0.03 0.03 0.03 0.04 0.06 0.06 0.05 0.04 0.03 0.03 0.02
0.01 0.01 0.01 0.00 0.01 0.01 0.00 0.00 0.00 0.00 0.00 0.00 0.00 0.00 0.00 0.00 0.00 0.00 0.00 0.00 0.00 0.01 0.01 0.01 0.00 0.01 0.01 0.02 0.02 0.02 0.02 0.03 0.02 0.01 0.02 0.03 0.05 0.07 0.07 0.06 0.05 0.04 0.03 0.03
0.00 0.00 0.01 0.00 0.00 0.00 0.00 0.00 0.00 0.00 0.00 0.00 0.00 0.00 0.00 0.00 0.00 0.00 0.00 0.00 0.00 0.01 0.01 0.01 0.01 0.01 0.01 0.01 0.02 0.01 0.02 0.02 0.02 0.01 0.01 0.01 0.01 0.02 0.03 0.03 0.06 0.07 0.04 0.03
0.00 0.00 0.00 0.00 0.00 0.00 0.00 0.00 0.00 0.00 0.00 0.00 0.00 0.00 0.00 0.00 0.00 0.00 0.00 0.00 0.00 0.01 0.01 0.01 0.01 0.01 0.01 0.01 0.01 0.01 0.01 0.02 0.01 0.01 0.01 0.01 0.01 0.02 0.02 0.02 0.04 0.04 0.04 0.02
0.00 0.00 0.00 0.00 0.00 0.00 0.00 0.00 0.00 0.00 0.00 0.00 0.00 0.00 0.00 0.00 0.00 0.00 0.00 0.00 0.00 0.01 0.01 0.01 0.01 0.01 0.01 0.01 0.01 0.01 0.01 0.01 0.01 0.01 0.01 0.01 0.01 0.01 0.02 0.03 0.03 0.02 0.02 0.02
0.00 0.00 0.00 0.00 0.00 0.00 0.00 0.00 0.00 0.00 0.00 0.00 0.00 0.00 0.00 0.00 0.00 0.00 0.00 0.00 0.00 0.01 0.01 0.01 0.01 0.01 0.01 0.01 0.01 0.01 0.01 0.01 0.01 0.01 0.01 0.01 0.01 0.01 0.02 0.02 0.02 0.01 0.02 0.02
0.00 0.00 0.00 0.00 0.00 0.00 0.00 0.00 0.00 0.00 0.00 0.00 0.00 0.00 0.00 0.00 0.00 0.00 0.00 0.00 0.01 0.01 0.01 0.02 0.02 0.01 0.01 0.01 0.01 0.01 0.01 0.01 0.01 0.02 0.02 0.02 0.02 0.02 0.02 0.02 0.01 0.01 0.01 0.02
0.00 0.00 0.00 0.00 0.00 0.00 0.00 0.00 0.00 0.00 0.00 0.01 0.01 0.00 0.00 0.00 0.01 0.01 0.00 0.01 0.01 0.01 0.02 0.03 0.03 0.02 0.01 0.01 0.01 0.01 0.01 0.02 0.02 0.02 0.02 0.02 0.02 0.02 0.02 0.02 0.02 0.02 0.01 0.01
0.00 0.00 0.00 0.00 0.00 0.00 0.00 0.00 0.01 0.01 0.01 0.01 0.01 0.01 0.01 0.01 0.01 0.01 0.01 0.01 0.01 0.01 0.02 0.03 0.04 0.02 0.01 0.01 0.01 0.01 0.01 0.01 0.02 0.01 0.01 0.01 0.02 0.02 0.01 0.01 0.01 0.01 0.01 0.01
0.00 0.00 0.00 0.00 0.00 0.00 0.00 0.00 0.01 0.01 0.01 0.01 0.01 0.01 0.01 0.01 0.01 0.01 0.01 0.01 0.01 0.01 0.01 0.02 0.04 0.03 0.01 0.01 0.01 0.01 0.01 0.01 0.01 0.01 0.01 0.01 0.02 0.01 0.01 0.01 0.01 0.01 0.01 0.01
0.00 0.00 0.00 0.00 0.00 0.00 0.00 0.00 0.01 0.01 0.01 0.01 0.02 0.02 0.01 0.01 0.01 0.01 0.01 0.01 0.01 0.01 0.01 0.01 0.03 0.03 0.02 0.01 0.01 0.01 0.01 0.01 0.01 0.01 0.01 0.02 0.02 0.01 0.01 0.01 0.01 0.01 0.01 0.01
0.00 0.00 0.00 0.00 0.00 0.00 0.00 0.01 0.01 0.01 0.01 0.01 0.01 0.01 0.01 0.01 0.01 0.01 0.01 0.01 0.01 0.01 0.01 0.01 0.01 0.01 0.01 0.01 0.01 0.01 0.01 0.01 0.01 0.01 0.01 0.01 0.01 0.01 0.01 0.01 0.01 0.01 0.01 0.01
0.01 0.01 0.00 0.00 0.00 0.00 0.00 0.01 0.01 0.01 0.01 0.01 0.01 0.01 0.01 0.01 0.01 0.01 0.01 0.01 0.01 0.01 0.01 0.01 0.01 0.01 0.01 0.01 0.01 0.01 0.01 0.01 0.01 0.01 0.01 0.01 0.02 0.02 0.02 0.02 0.02 0.01 0.01 0.01
0.00 0.00 0.00 0.00 0.00 0.00 0.00 0.00 0.00 0.01 0.01 0.01 0.01 0.01 0.01 0.01 0.01 0.01 0.01 0.01 0.01 0.01 0.01 0.00 0.00 0.00 0.00 0.01 0.01 0.00 0.00 0.00 0.00 0.01 0.01 0.01 0.01 0.01 0.02 0.02 0.02 0.02 0.01 0.01
0.00 0.00 0.00 0.00 0.00 0.00 0.00 0.00 0.00 0.00 0.01 0.01 0.01 0.01 0.01 0.01 0.01 0.00 0.00 0.01 0.01 0.01 0.00 0.00 0.01 0.01 0.01 0.01 0.01 0.01 0.00 0.00 0.00 0.00 0.00 0.01 0.01 0.01 0.02 0.02 0.02 0.02 0.02 0.01
0.00 0.00 0.00 0.00 0.00 0.00 0.00 0.00 0.00 0.00 0.01 0.01 0.01 0.00 0.00 0.01 0.01 0.00 0.01 0.01 0.01 0.01 0.00 0.00 0.00 0.00 0.01 0.01 0.01 0.01 0.00 0.00 0.00 0.00 0.00 0.00 0.01 0.01 0.02 0.01 0.01 0.02 0.02 0.02
0.00 0.00 0.01 0.01 0.01 0.00 0.01 0.01 0.01 0.00 0.00 0.00 0.00 0.00 0.00 0.01 0.01 0.01 0.01 0.01 0.01 0.01 0.00 0.00 0.00 0.00 0.00 0.00 0.00 0.01 0.01 0.00 0.00 0.00 0.00 0.00 0.00 0.01 0.01 0.02 0.02 0.02 0.02 0.02
0.00 0.01 0.01 0.01 0.01 0.01 0.01 0.01 0.01 0.01 0.00 0.00 0.00 0.01 0.01 0.01 0.01 0.01 0.01 0.01 0.01 0.00 0.00 0.00 0.00 0.00 0.00 0.00 0.00 0.00 0.01 0.01 0.00 0.00 0.00 0.00 0.00 0.00 0.01 0.02 0.03 0.03 0.02 0.02
0.00 0.01 0.01 0.01 0.01 0.01 0.01 0.02 0.02 0.01 0.01 0.01 0.02 0.02 0.02 0.01 0.01 0.01 0.01 0.01 0.00 0.00 0.00 0.00 0.00 0.00 0.00 0.00 0.00 0.00 0.00 0.00 0.00 0.00 0.00 0.00 0.00 0.01 0.01 0.01 0.03 0.03 0.03 0.02
MSLP
1018.79 1019.07 1019.38 1019.68 1019.94 1020.12 1020.18 1020.09 1019.85 1019.47 1018.99 1018.47 1017.98 1017.59 1017.34 1017.27 1017.38 1017.67 1018.08 1018.58 1019.10 1019.60 1020.04 1020.43 1020.76 1021.05 1021.35 1021.69 1022.07 1022.52 1023.03 1023.58 1024.14 1024.68 1025.17 1025.59 1025.93 1026.21 1026.42 1026.60 1026.76 1026.93 1027.12 1027.33
1018.84 1019.08 1019.31 1019.53 1019.69 1019.78 1019.76 1019.61 1019.34 1018.97 1018.53 1018.06 1017.63 1017.29 1017.07 1017.01 1017.10 1017.34 1017.69 1018.11 1018.55 1018.99 1019.39 1019.76 1020.11 1020.44 1020.79 1021.19 1021.63 1022.15 1022.71 1023.30 1023.91 1024.49 1025.02 1025.49 1025.89 1026.21 1026.48 1026.71 1026.91 1027.11 1027.31 1027.52
1019.03 1019.20 1019.35 1019.46 1019.51 1019.49 1019.37 1019.16 1018.85 1018.48 1018.06 1017.64 1017.26 1016.97 1016.79 1016.74 1016.82 1017.01 1017.29 1017.63 1018.00 1018.37 1018.74 1019.09 1019.44 1019.80 1020.19 1020.63 1021.14 1021.69 1022.30 1022.93 1023.56 1024.17 1024.73 1025.24 1025.67 1026.04 1026.36 1026.63 1026.88 1027.10 1027.32 1027.53
1019.27 1019.38 1019.44 1019.44 1019.37 1019.24 1019.02 1018.74 1018.39 1018.01 1017.62 1017.24 1016.92 1016.68 1016.53 1016.49 1016.55 1016.70 1016.92 1017.19 1017.49 1017.79 1018.11 1018.44 1018.78 1019.16 1019.58 1020.06 1020.59 1021.18 1021.81 1022.45 1023.10 1023.72 1024.29 1024.81 1025.27 1025.68 1026.03 1026.34 1026.62 1026.87 1027.11 1027.33
1019.48 1019.52 1019.48 1019.38 1019.21 1018.98 1018.68 1018.34 1017.97 1017.59 1017.23 1016.90 1016.63 1016.43 1016.32 1016.29 1016.34 1016.45 1016.61 1016.81 1017.03 1017.28 1017.54 1017.83 1018.16 1018.54 1018.97 1019.47 1020.02 1020.62 1021.25 1021.90 1022.53 1023.14 1023.71 1024.23 1024.70 1025.12 1025.49 1025.83 1026.14 1026.42 1026.67 1026.91
1019.53 1019.50 1019.39 1019.21 1018.97 1018.67 1018.32 1017.95 1017.58 1017.22 1016.89 1016.62 1016.40 1016.25 1016.17 1016.15 1016.19 1016.26 1016.37 1016.49 1016.65 1016.82 1017.03 1017.28 1017.58 1017.95 1018.37 1018.87 1019.42 1020.02 1020.64 1021.27 1021.88 1022.47 1023.01 1023.52 1023.98 1024.40 1024.78 1025.14 1025.46 1025.77 1026.05 1026.31
1019.36 1019.27 1019.10 1018.87 1018.59 1018.26 1017.91 1017.55 1017.20 1016.88 1016.61 1016.39 1016.24 1016.13 1016.08 1016.07 1016.08 1016.12 1016.16 1016.23 1016.31 1016.41 1016.56 1016.76 1017.03 1017.37 1017.78 1018.27 1018.81 1019.39 1019.99 1020.58 1021.17 1021.72 1022.23 1022.71 1023.15 1023.56 1023.94 1024.31 1024.65 1024.97 1025.27 1025.55
1018.92 1018.79 1018.59 1018.35 1018.06 1017.75 1017.42 1017.11 1016.82 1016.57 1016.37 1016.22 1016.12 1016.06 1016.03 1016.02 1016.01 1016.00 1015.99 1015.99 1016.00 1016.04 1016.13 1016.28 1016.51 1016.81 1017.20 1017.67 1018.19 1018.74 1019.31 1019.88 1020.42 1020.93 1021.41 1021.85 1022.26 1022.65 1023.03 1023.39 1023.74 1024.08 1024.40 1024.70
1018.24 1018.09 1017.89 1017.66 1017.40 1017.14 1016.88 1016.64 1016.43 1016.27 1016.15 1016.07 1016.03 1016.01 1016.00 1015.98 1015.95 1015.91 1015.85 1015.78 1015.73 1015.70 1015.74 1015.84 1016.02 1016.30 1016.66 1017.09 1017.58 1018.11 1018.65 1019.17 1019.67 1020.14 1020.58 1020.98 1021.36 1021.72 1022.08 1022.43 1022.78 1023.12 1023.46 1023.77
1017.41 1017.25 1017.07 1016.87 1016.67 1016.48 1016.31 1016.17 1016.06 1015.98 1015.95 1015.94 1015.95 1015.97 1015.97 1015.96 1015.91 1015.83 1015.72 1015.60 1015.50 1015.42 1015.40 1015.46 1015.61 1015.84 1016.17 1016.58 1017.03 1017.52 1018.02 1018.50 1018.96 1019.38 1019.77 1020.12 1020.46 1020.79 1021.12 1021.45 1021.79 1022.14 1022.47 1022.79
1016.52 1016.36 1016.20 1016.06 1015.94 1015.83 1015.76 1015.71 1015.70 1015.72 1015.77 1015.83 1015.89 1015.94 1015.95 1015.94 1015.87 1015.77 1015.63 1015.48 1015.33 1015.22 1015.16 1015.18 1015.29 1015.50 1015.79 1016.15 1016.56 1017.01 1017.45 1017.88 1018.29 1018.66 1018.99 1019.30 1019.59 1019.88 1020.18 1020.48 1020.80 1021.12 1021.45 1021.76
1015.65 1015.50 1015.39 1015.30 1015.26 1015.24 1015.26 1015.31 1015.39 1015.49 1015.61 1015.72 1015.83 1015.90 1015.94 1015.93 1015.86 1015.75 1015.60 1015.43 1015.27 1015.13 1015.05 1015.04 1015.12 1015.28 1015.53 1015.84 1016.20 1016.58 1016.97 1017.33 1017.68 1017.98 1018.26 1018.51 1018.75 1018.99 1019.24 1019.51 1019.79 1020.09 1020.39 1020.68
1014.85 1014.73 1014.66 1014.64 1014.67 1014.74 1014.84 1014.97 1015.13 1015.30 1015.47 1015.64 1015.78 1015.88 1015.94 1015.94 1015.89 1015.78 1015.64 1015.48 1015.31 1015.17 1015.08 1015.05 1015.09 1015.21 1015.40 1015.65 1015.94 1016.25 1016.56 1016.85 1017.12 1017.35 1017.56 1017.75 1017.94 1018.13 1018.33 1018.55 1018.79 1019.04 1019.30 1019.56
1014.14 1014.06 1014.04 1014.09 1014.19 1014.33 1014.51 1014.71 1014.93 1015.15 1015.37 1015.57 1015.74 1015.87 1015.96 1015.99 1015.96 1015.88 1015.77 1015.63 1015.48 1015.34 1015.24 1015.19 1015.20 1015.27 1015.39 1015.56 1015.77 1015.99 1016.21 1016.41 1016.60 1016.76 1016.90 1017.02 1017.15 1017.28 1017.43 1017.60 1017.80 1018.01 1018.23 1018.45
1013.50 1013.47 1013.52 1013.63 1013.79 1014.01 1014.25 1014.50 1014.77 1015.04 1015.29 1015.53 1015.73 1015.89 1016.01 1016.07 1016.09 1016.05 1015.97 1015.87 1015.74 1015.62 1015.52 1015.45 1015.41 1015.42 1015.47 1015.55 1015.66 1015.78 1015.89 1016.00 1016.10 1016.18 1016.25 1016.31 1016.38 1016.47 1016.57 1016.70 1016.85 1017.01 1017.19 1017.37
1012.90 1012.94 1013.06 1013.24 1013.48 1013.75 1014.05 1014.36 1014.67 1014.97 1015.26 1015.52 1015.75 1015.95 1016.10 1016.21 1016.26 1016.28 1016.24 1016.18 1016.08 1015.98 1015.87 1015.77 1015.69 1015.63 1015.59 1015.58 1015.58 1015.59 1015.60 1015.61 1015.62 1015.62 1015.62 1015.63 1015.66 1015.70 1015.76 1015.85 1015.96 1016.09 1016.23 1016.38
1012.34 1012.46 1012.66 1012.92 1013.23 1013.57 1013.92 1014.28 1014.63 1014.96 1015.28 1015.57 1015.83 1016.05 1016.24 1016.39 1016.50 1016.56 1016.57 1016.54 1016.47 1016.37 1016.26 1016.13 1015.99 1015.86 1015.74 1015.62 1015.51 1015.41 1015.32 1015.23 1015.15 1015.08 1015.03 1014.99 1014.98 1014.99 1015.03 1015.09 1015.17 1015.28 1015.39 1015.51
1011.84 1012.04 1012.33 1012.67 1013.06 1013.46 1013.87 1014.28 1014.66 1015.03 1015.37 1015.68 1015.97 1016.23 1016.45 1016.64 1016.78 1016.88 1016.93 1016.93 1016.88 1016.79 1016.65 1016.49 1016.30 1016.09 1015.88 1015.66 1015.45 1015.25 1015.05 1014.88 1014.72 1014.59 1014.48 1014.41 1014.36 1014.35 1014.37 1014.42 1014.49 1014.58 1014.68 1014.79
1011.44 1011.74 1012.11 1012.54 1013.00 1013.47 1013.93 1014.37 1014.80 1015.19 1015.56 1015.89 1016.20 1016.49 1016.74 1016.95 1017.13 1017.25 1017.33 1017.35 1017.31 1017.21 1017.05 1016.85 1016.61 1016.33 1016.03 1015.73 1015.42 1015.12 1014.84 1014.58 1014.36 1014.17 1014.02 1013.91 1013.84 1013.81 1013.81 1013.85 1013.91 1013.99 1014.09 1014.20
1011.22 1011.60 1012.06 1012.55 1013.08 1013.60 1014.11 1014.59 1015.04 1015.46 1015.85 1016.20 1016.53 1016.83 1017.09 1017.33 1017.52 1017.66 1017.75 1017.77 1017.73 1017.62 1017.45 1017.21 1016.92 1016.58 1016.22 1015.83 1015.45 1015.07 1014.71 1014.38 1014.09 1013.85 1013.66 1013.51 1013.41 1013.36 1013.35 1013.37 1013.42 1013.50 1013.60 1013.72
1011.24 1011.69 1012.21 1012.76 1013.33 1013.89 1014.42 1014.93 1015.40 1015.83 1016.23 1016.59 1016.93 1017.23 1017.50 1017.74 1017.94 1018.09 1018.18 1018.20 1018.15 1018.03 1017.83 1017.57 1017.24 1016.86 1016.44 1015.99 1015.54 1015.10 1014.68 1014.29 1013.95 1013.65 1013.41 1013.23 1013.09 1013.01 1012.97 1012.97 1013.01 1013.07 1013.17 1013.29
1011.52 1012.02 1012.58 1013.16 1013.75 1014.32 1014.87 1015.38 1015.85 1016.29 1016.68 1017.05 1017.38 1017.68 1017.94 1018.17 1018.36 1018.50 1018.59 1018.60 1018.55 1018.41 1018.20 1017.91 1017.56 1017.15 1016.70 1016.21 1015.72 1015.23 1014.76 1014.32 1013.92 1013.57 1013.28 1013.05 1012.87 1012.75 1012.67 1012.64 1012.65 1012.69 1012.77 1012.89
1012.06 1012.59 1013.15 1013.73 1014.31 1014.87 1015.41 1015.91 1016.37 1016.79 1017.17 1017.51 1017.83 1018.11 1018.36 1018.58 1018.75 1018.87 1018.94 1018.95 1018.88 1018.73 1018.51 1018.22 1017.86 1017.43 1016.96 1016.46 1015.94 1015.42 1014.91 1014.43 1013.99 1013.59 1013.26 1012.97 1012.74 1012.57 1012.44 1012.37 1012.33 1012.35 1012.40 1012.50
1012.82 1013.34 1013.88 1014.43 1014.98 1015.51 1016.00 1016.47 1016.89 1017.28 1017.64 1017.96 1018.24 1018.50 1018.72 1018.91 1019.05 1019.15 1019.20 1019.19 1019.11 1018.96 1018.73 1018.44 1018.08 1017.66 1017.19 1016.68 1016.15 1015.62 1015.09 1014.59 1014.11 1013.68 1013.29 1012.96 1012.67 1012.44 1012.27 1012.14 1012.06 1012.03 1012.05 1012.13
1013.72 1014.21 1014.71 1015.21 1015.70 1016.17 1016.61 1017.02 1017.40 1017.75 1018.06 1018.34 1018.59 1018.80 1018.99 1019.14 1019.25 1019.31 1019.33 1019.29 1019.19 1019.03 1018.81 1018.52 1018.17 1017.77 1017.31 1016.82 1016.30 1015.77 1015.24 1014.73 1014.23 1013.77 1013.34 1012.97 1012.63 1012.35 1012.12 1011.94 1011.82 1011.75 1011.73 1011.77
1014.69 1015.14 1015.58 1016.02 1016.43 1016.83 1017.20 1017.55 1017.87 1018.16 1018.42 1018.65 1018.84 1019.01 1019.14 1019.24 1019.31 1019.33 1019.31 1019.24 1019.12 1018.95 1018.72 1018.44 1018.10 1017.72 1017.29 1016.83 1016.33 1015.82 1015.31 1014.79 1014.29 1013.82 1013.37 1012.96 1012.59 1012.27 1011.99 1011.77 1011.59 1011.48 1011.42 1011.43
1015.69 1016.08 1016.45 1016.81 1017.14 1017.46 1017.76 1018.04 1018.29 1018.52 1018.72 1018.89 1019.03 1019.13 1019.20 1019.24 1019.24 1019.21 1019.14 1019.03 1018.88 1018.69 1018.45 1018.17 1017.86 1017.50 1017.10 1016.67 1016.21 1015.73 1015.24 1014.74 1014.25 1013.78 1013.32 1012.90 1012.50 1012.15 1011.84 1011.58 1011.37 1011.22 1011.13 1011.11
Thickness
5690 5693 5693 5693 5694 5693 5692 5697 5694 5701 5705 5714 5719 5719 5721 5721 5719 5716 5716 5715 5715 5713 5712 5710 5708 5707 5705 5703 5702 5700 5696 5693 5691 5690 5687 5685 5683 5682 5680 5679 5678 5676 5674 5672
5682 5687 5688 5688 5694 5694 5693 5696 5698 5700 5705 5718 5720 5720 5718 5717 5715 5713 5713 5714 5714 5713 5711 5708 5706 5704 5702 5700 5699 5697 5694 5691 5688 5686 5683 5681 5679 5679 5676 5674 5673 5672 5670 5668
5674 5681 5679 5678 5694 5696 5696 5700 5700 5698 5707 5714 5712 5712 5714 5715 5713 5712 5712 5713 5712 5712 5710 5708 5706 5703 5700 5698 5696 5694 5691 5688 5685 5683 5679 5677 5675 5674 5671 5669 5669 5668 5666 5663
5668 5668 5659 5689 5705 5703 5698 5699 5704 5705 5708 5710 5710 5712 5714 5714 5713 5712 5712 5711 5711 5710 5709 5707 5706 5702 5699 5696 5692 5690 5688 5685 5682 5680 5676 5674 5671 5669 5667 5666 5664 5662 5661 5659
5661 5660 5670 5685 5694 5696 5692 5692 5702 5701 5703 5705 5708 5708 5709 5711 5711 5711 5711 5710 5709 5709 5707 5705 5703 5699 5695 5692 5689 5686 5684 5682 5679 5677 5673 5670 5667 5665 5664 5663 5660 5658 5656 5653
5656 5653 5657 5681 5693 5697 5691 5684 5700 5700 5699 5701 5701 5697 5703 5708 5708 5708 5707 5707 5706 5705 5704 5700 5698 5696 5692 5688 5685 5683 5681 5679 5676 5674 5670 5667 5664 5662 5660 5658 5655 5654 5652 5650
5652 5654 5667 5680 5685 5685 5672 5681 5693 5696 5697 5697 5697 5700 5703 5704 5703 5703 5702 5702 5702 5701 5699 5697 5695 5692 5689 5686 5683 5681 5679 5675 5672 5669 5666 5664 5661 5658 5655 5653 5651 5650 5648 5645
5649 5648 5657 5674 5675 5675 5680 5688 5689 5690 5692 5691 5693 5696 5697 5697 5696 5697 5697 5697 5697 5696 5694 5693 5691 5689 5685 5682 5681 5677 5674 5670 5668 5665 5663 5660 5656 5654 5651 5648 5646 5644 5642 5640
5652 5656 5666 5670 5672 5677 5680 5681 5683 5684 5686 5686 5686 5688 5689 5690 5691 5691 5691 5691 5691 5690 5688 5687 5686 5685 5682 5679 5676 5673 5669 5666 5663 5661 5659 5657 5653 5650 5647 5645 5643 5641 5638 5635
5648 5656 5660 5664 5667 5670 5673 5675 5678 5680 5680 5680 5680 5682 5683 5685 5685 5685 5685 5685 5685 5684 5683 5682 5681 5680 5678 5675 5672 5669 5665 5662 5659 5657 5654 5652 5649 5648 5645 5643 5641 5638 5636 5633
5642 5649 5652 5657 5661 5664 5667 5670 5672 5674 5675 5675 5675 5676 5677 5679 5680 5680 5679 5678 5679 5678 5677 5676 5675 5674 5672 5669 5667 5664 5662 5659 5656 5653 5651 5647 5645 5643 5642 5641 5640 5637 5635 5632
5636 5644 5646 5651 5656 5658 5659 5662 5665 5667 5668 5670 5670 5670 5671 5672 5674 5674 5673 5673 5672 5673 5673 5672 5670 5667 5665 5663 5662 5661 5658 5655 5652 5649 5646 5643 5640 5637 5633 5633 5631 5629 5628 5626
5634 5638 5640 5644 5648 5652 5654 5656 5659 5661 5662 5662 5664 5665 5666 5667 5667 5668 5668 5667 5667 5667 5667 5666 5664 5662 5660 5658 5657 5656 5654 5651 5648 5645 5643 5640 5637 5635 5631 5626 5623 5621 5619 5618
5626 5628 5631 5637 5639 5644 5648 5650 5653 5655 5656 5657 5657 5658 5659 5660 5660 5661 5661 5662 5661 5661 5660 5660 5658 5656 5655 5653 5652 5651 5649 5646 5644 5641 5639 5637 5634 5632 5630 5628 5624 5620 5615 5611
5619 5622 5626 5630 5633 5636 5640 5643 5644 5646 5648 5649 5650 5650 5651 5652 5653 5654 5655 5655 5654 5654 5654 5653 5652 5650 5649 5647 5646 5645 5643 5641 5639 5637 5635 5632 5630 5628 5626 5624 5622 5619 5615 5609
5614 5617 5620 5623 5626 5630 5633 5635 5637 5639 5641 5641 5642 5643 5644 5645 5645 5645 5646 5647 5647 5646 5647 5646 5645 5644 5643 5641 5640 5638 5637 5634 5632 5631 5629 5627 5625 5624 5622 5620 5618 5616 5613 5609
5606 5610 5613 5616 5620 5624 5627 5630 5633 5633 5634 5635 5636 5636 5636 5637 5637 5637 5638 5639 5639 5640 5641 5641 5639 5638 5636 5635 5634 5633 5631 5628 5624 5625 5624 5623 5621 5619 5617 5615 5613 5611 5608 5604
5605 5608 5611 5613 5616 5618 5621 5624 5625 5626 5627 5628 5628 5628 5629 5630 5631 5631 5631 5631 5632 5632 5633 5634 5633 5631 5630 5629 5628 5628 5626 5624 5621 5620 5619 5617 5615 5614 5612 5610 5608 5605 5601 5596
5599 5601 5604 5607 5610 5613 5615 5617 5618 5620 5621 5621 5622 5622 5623 5624 5625 5625 5625 5624 5625 5625 5626 5626 5624 5625 5624 5622 5621 5621 5620 5619 5616 5614 5613 5609 5607 5607 5606 5604 5602 5599 5595 5591
5593 5596 5599 5602 5604 5606 5608 5610 5612 5612 5613 5614 5615 5616 5616 5617 5617 5618 5618 5618 5619 5620 5620 5619 5618 5618 5617 5615 5613 5614 5614 5612 5610 5608 5606 5604 5602 5601 5599 5597 5595 5592 5589 5585
5587 5590 5592 5595 5597 5599 5601 5603 5604 5605 5606 5607 5609 5610 5611 5611 5611 5611 5611 5611 5611 5611 5611 5609 5611 5610 5609 5607 5605 5606 5606 5604 5603 5601 5599 5597 5595 5594 5592 5590 5588 5585 5582 5579
5581 5584 5587 5589 5591 5592 5594 5596 5597 5598 5599 5600 5601 5603 5603 5603 5603 5604 5605 5605 5604 5602 5603 5603 5604 5602 5601 5598 5598 5598 5597 5595 5594 5593 5591 5589 5588 5586 5585 5583 5580 5577 5574 5570
5577 5580 5582 5584 5585 5586 5587 5588 5590 5591 5592 5593 5594 5595 5596 5596 5596 5597 5596 5597 5597 5595 5596 5596 5595 5592 5591 5591 5590 5589 5588 5587 5585 5584 5583 5582 5580 5579 5577 5574 5571 5568 5565 5561
5570 5573 5576 5578 5579 5579 5579 5581 5582 5583 5584 5586 5587 5588 5588 5588 5588 5589 5589 5587 5587 5586 5587 5586 5584 5583 5582 5583 5582 5580 5579 5578 5576 5575 5574 5573 5571 5569 5567 5565 5562 5559 5556 5552
5564 5567 5569 5570 5571 5572 5574 5575 5575 5576 5577 5578 5579 5580 5580 5581 5581 5581 5580 5579 5578 5578 5578 5576 5575 5574 5574 5574 5573 5572 5571 5569 5568 5566 5564 5563 5561 5559 5557 5554 5552 5549 5546 5543
5557 5559 5561 5562 5564 5565 5567 5568 5569 5570 5571 5571 5571 5571 5571 5571 5571 5571 5571 5571 5570 5569 5570 5568 5567 5565 5566 5565 5564 5562 5561 5559 5557 5555 5554 5552 5550 5548 5546 5544 5542 5539 5536 5533
5549 5551 5552 5553 5555 5557 5559 5561 5562 5563 5564 5564 5564 5563 5563 5563 5563 5563 5563 5562 5562 5561 5561 5559 5559 5557 5556 5555 5554 5552 5551 5549 5547 5545 5543 5541 5539 5537 5535 5533 5531 5528 5525 5522